Regional Weather Roundup
Issued by NWS

Home | Current Version | Previous Version | Graphics & Text | Print | Product List | Glossary On
Versions: 1 2 3 4 5 6 7 8 9 10 11 12 13 14 15 16 17 18 19 20 21 22 23 24 25 26 27 28 29 30 31 32 33 34 35 36 37 38 39 40 41 42 43 44 45 46 47 48 49 50
000
ASUS45 KCYS 191710
RWRWY

WYOMING REGIONAL WEATHER ROUNDUP
NATIONAL WEATHER SERVICE CHEYENNE WY
1100 AM MDT TUE AUG 19 2014

NOTE:  "FAIR" INDICATES FEW OR NO CLOUDS BELOW 12,000 FEET
WITH NO SIGNIFICANT WEATHER AND/OR OBSTRUCTIONS TO VISIBILITY.

WYZ001-191800-
YELLOWSTONE NATIONAL PARK

CITY           SKY/WX    TMP DP  RH WIND       PRES   REMARKS
LK YELLOWSTONE   N/A     55  45  68 CALM      30.17S
W YELLOWSTONE  NOT AVBL

$$
WYZ002>013-054>058-071-098>099-191800-
NORTHERN WYOMING

CITY           SKY/WX    TMP DP  RH WIND       PRES   REMARKS
JACKSON        SUNNY     64  45  48 S5        30.08S
CODY           MOSUNNY   79  43  27 CALM      29.92F
GREYBULL       MOSUNNY   77  47  34 SE5       29.86F
WORLAND        MOSUNNY   76  47  35 W3        29.87F
SHERIDAN       MOSUNNY   83  46  27 E5        29.84F
BUFFALO        MOSUNNY   82  41  23 E6        29.92S
GILLETTE       SUNNY     81  51  35 S3        29.88F
HULETT         FAIR      81  52  36 MISG      29.89
NEWCASTLE      FAIR      79  46  31 SE7       29.90

$$
WYZ014>020-022>026-101>103-191800-
CENTRAL WYOMING

CITY           SKY/WX    TMP DP  RH WIND       PRES   REMARKS
BIG PINEY      CLOUDY    60  43  53 S5        30.13R
PINEDALE       CLOUDY    63  37  39 W3        30.12R
DUBOIS         FAIR      70  36  28 CALM      30.08F
LANDER         CLOUDY    76  45  33 SE8       29.99R
RIVERTON       CLOUDY    73  41  31 S8        29.99R
CASPER         MOSUNNY   80  38  22 SW17      29.96F
DOUGLAS        SUNNY     81  44  27 W6        29.94F

$$
WYZ021-027>030-104>119-191800-
SOUTHERN WYOMING

CITY           SKY/WX    TMP DP  RH WIND       PRES   REMARKS
EVANSTON       LGT RAIN  58  47  66 SW14      30.17R
KEMMERER       CLOUDY    61  41  48 W9        30.16S
FORT BRIDGER   CLOUDY    61  52  72 SE14      30.19S
ROCK SPRINGS   CLOUDY   N/A N/A N/A MISG      30.13R
DIXON          CLOUDY    71  39  32 SW6       30.16R
RAWLINS        CLOUDY    70  36  28 SW17G31   30.11S
SARATOGA       FAIR      73  37  27 MISG      30.15S
LARAMIE        CLOUDY    73  38  27 SW20G26   30.13S
CHEYENNE       MOSUNNY   80  41  24 W16G26    30.03R
TORRINGTON     MOSUNNY   81  55  40 S8        29.89S
PINE BLUFFS    FAIR      79  48  34 SW6       29.97S

$$



USA.gov is the U.S. government's official web portal to all federal, state and local government web resources and services.